Location: Cahas Mountain Overlook
(37.0833°N, 80.1000°W)
Time: 10:45:41
(UTC-04:00)

Vanguard 1 Rocket - Pass Details

Date: 10 February 2026
Orbit: 653 x 4214 km, 34.3° (Epoch: 15 March)

Event Time Altitude Azimuth Distance (km) Brightness Sun altitude
Rises 21:03:49 0° 286° (WNW) 7,490 13.0 -38.0°
Reaches altitude 10° 21:08:33 10° 282° (WNW) 6,792 12.5 -38.9°
Maximum altitude 21:31:53 53° 215° (SW) 4,751 10.8 -43.4°
Enters shadow 21:41:20 40° 169° (S) 5,032 10.8 -45.2°
